Погода в Топчихе

Россия / Алтайский край     52°49′14″N   83°07′16″E
темп.,
°C
ветер,
м/с
пор.,
м/с
влажн.,
%
обл.,
%
осадки,
мм/ч
давл.,
гПа
погр.,
м
14 июня, пн
пн1401:00+12зсз3493100 0.1 101796
04:00+12зюз349584 0.0 1016104
07:00+13зсз3696100 0.4 1017340
10:00+15ссз4689100 0.1 1018482
13:00+19ссв566298 0.6 10181523
16:00+21св56490 0.1 10181810
19:00+20св56540 0.1 10181476
22:00+14ссв48760 0.0 1019144
15 июня, вт
вт1501:00+11ссв48775 0.0 1020130
04:00+10св348420 0.0 102051
07:00+12ссв35785 0.0 1020144
10:00+18св34575 0.0 1020664
13:00+21св354420 0.0 10191436
16:00+23св45445 0.0 10181599
19:00+23в23495 0.0 1017947
22:00+17ссв00674 0.0 101711
16 июня, ср
ср1601:00+14ююз227656 0.1 101611
04:00+13юз227910 0.0 101611
07:00+16ю11731 0.0 101646
10:00+21ю21613 0.0 1016456
13:00+25ю01514 0.0 10151304
16:00+26ю12452 0.0 10141886
19:00+26ююв33521 0.0 1012518
22:00+19ю33660 0.0 101234
17 июня, чт
чт1701:00+17ююз33750 0.0 101237
04:00+15зюз23780 0.0 101224
07:00+17ююз247787 0.0 1011111
10:00+22юз456378 0.0 1011593
13:00+26зюз345394 0.0 10101373
16:00+26з455128 0.0 10081492
19:00+26зсз355469 0.0 1007547
22:00+21юз226775 0.0 100711
18 июня, пт
пт1801:00+19зюз3375100 0.0 100742
04:00+17зсз34867 0.1 100660
07:00+18з2382100 0.1 1006109
10:00+23зсз22654 0.0 1006571
13:00+26зсз245317 0.0 10051748
16:00+28сз344297 0.0 10042117
19:00+27св33525 0.0 1004549
22:00+19ююз35865 0.0 100484